sat.trackr.live / text

‹ back to catalog

STARLINK-31174

NORAD 58808 · 2024-012X

PAYLOAD ACTIVE UNKNOWN

§ Identity

Operator
Country
US
Launch date
2024-01-15
Launch site
AFETR
Launch vehicle
Mass (kg)
RCS (m²)

Purposes: comms

External: N2YO · Heavens-Above · Gunter

§ Orbital elements

Epoch: 2026-05-25T03:30:30.125664Z

Period
94.27 min
Inclination
43.0001°
Eccentricity
0.0000806
Mean motion
15.27583995 rev/d
Perigee alt
482.5 km
Apogee alt
483.6 km
Semi-major
6,861.2 km
B*
2.0622e-5
RAAN
93.0579°
Arg perigee
268.2803°
Mean anomaly
91.7957°
Rev number
13,293

§ Raw data

STARLINK-311741 58808U 24012X   26145.14618201  .00000306  00000+0  20622-4 0  99932 58808  43.0001  93.0579 0000806 268.2803  91.7957 15.27583995132935

JSON: /api/v1/satellites/58808 · /tle

For live sub-satellite position, see the globe view (requires WebGL).

§ Visibility from observer

Set your observer location to see the next 7 days of passes ≥ 10°. The values pass through the URL so the page stays shareable.

No JS? Fill the form by hand. The geolocation button needs JavaScript.